Back to catalog

SL-12 DEB

AliveHEO
NORAD 39801·DEBRIS·🇷🇺 Russia

Launched Sep 25, 2008 from Baikonur Cosmodrome

Loading…

Next Passes (next 24 hours)

TLE

FreshSource: Space-Track

Epoch: Sep 10, 2026, 03:31 UTC

1 39801U 08046N   26253.14689442  .00000654  00000-0  40043-3 0  9994
2 39801  65.0140  97.8180 5497004 230.1169  67.0629  4.71436433205230

Track SL-12 DEB in real time with AllMySat

Download on the App Store